FW1349 Weather Reports


Display with metric or nautical units.
time (UTC)temp
F
wind
direction
speed
MPH
gust
MPH
rain 1hr
in
rain 24hr
in
rain mn
in
humidity
%
barometer
mb
20240302164718 49 190 0.0 0.0 0.00 0.00 0.00 66 686.7
20240302164207 49 308 0.0 0.0 0.00 0.00 0.00 66 686.7
20240302163654 49 192 0.0 0.0 0.00 0.00 0.00 67 686.6
20240302163205 48 217 0.0 0.0 0.00 0.00 0.00 67 686.6
20240302162716 48 183 0.0 0.0 0.00 0.00 0.00 68 686.6
20240302162547 47 262 0.0 0.0 0.00 0.00 0.00 68 686.6
20240302162047 47 209 0.0 0.0 0.00 0.00 0.00 68 686.6
20240302161625 47 217 0.0 0.0 0.00 0.00 0.00 69 686.6
20240302161156 46 213 0.0 0.0 0.00 0.00 0.00 70 686.5
20240302160912 46 184 0.0 0.0 0.00 0.00 0.00 70 686.5
20240302160546 46 173 0.0 0.0 0.00 0.00 0.00 70 686.5
20240302160047 46 198 0.0 0.0 0.00 0.00 0.00 70 686.5
20240302155705 46 277 0.0 0.0 0.00 0.00 0.00 70 686.5
20240302155151 45 200 0.0 0.0 0.00 0.00 0.00 72 686.5
20240302154635 45 229 0.0 0.0 0.00 0.00 0.00 73 686.5
20240302154142 44 232 0.0 0.0 0.00 0.00 0.00 74 686.5
20240302153133 43 219 0.0 0.0 0.00 0.00 0.00 75 686.4
20240302152652 43 205 0.0 0.0 0.00 0.00 0.00 77 686.4
20240302152131 42 220 0.0 0.0 0.00 0.00 0.00 78 686.4
20240302151554 42 236 0.0 0.0 0.00 0.00 0.00 79 686.4
20240302151150 41 256 0.0 0.0 0.00 0.00 0.00 80 686.4
20240302151105 41 286 0.0 0.0 0.00 0.00 0.00 80 686.2
20240302150605 40 242 0.0 0.0 0.00 0.00 0.00 81 686.2
20240302150210 40 259 0.0 0.0 0.00 0.00 0.00 82 686.2
20240302145706 39 212 0.0 0.0 0.00 0.00 0.00 83 686.2
20240302145224 39 244 0.0 0.0 0.00 0.00 0.00 84 686.2
20240302145123 39 244 0.0 0.0 0.00 0.00 0.00 84 686.2
20240302144624 38 244 0.0 0.0 0.00 0.00 0.00 85 686.1
20240302144438 38 248 0.0 0.0 0.00 0.00 0.00 85 686.1
20240302144105 38 229 0.0 0.0 0.00 0.00 0.00 85 686.1
20240302143600 37 229 0.0 0.0 0.00 0.00 0.00 86 686.1
20240302143205 37 229 0.0 0.0 0.00 0.00 0.00 86 686.1
20240302143101 37 229 0.0 0.0 0.00 0.00 0.00 86 686.1
20240302142555 37 229 0.0 0.0 0.00 0.00 0.00 87 686.1
20240302142439 36 229 0.0 0.0 0.00 0.00 0.00 87 686.0
20240302141641 35 229 0.0 0.0 0.00 0.00 0.00 87 722.6
20240302141330 35 229 0.0 0.0 0.00 0.00 0.00 87 722.6
20240302141106 34 229 0.0 0.0 0.00 0.00 0.00 86 722.6
20240302140122 34 229 0.0 0.0 0.00 0.00 0.00 85 722.6
20240302135603 34 229 0.0 0.0 0.00 0.00 0.00 85 722.5
20240302135222 34 229 0.0 0.0 0.00 0.00 0.00 84 722.5
20240302134718 34 229 0.0 0.0 0.00 0.00 0.00 84 722.5
20240302134634 34 229 0.0 0.0 0.00 0.00 0.00 84 722.5
20240302134329 34 229 0.0 0.0 0.00 0.00 0.00 84 722.5
20240302133718 34 229 0.0 0.0 0.00 0.00 0.00 84 722.5
20240302133606 34 229 0.0 0.0 0.00 0.00 0.00 84 722.6
20240302133316 34 229 0.0 0.0 0.00 0.00 0.00 84 722.6
20240302132600 35 229 0.0 0.0 0.00 0.00 0.00 84 722.6
20240302132119 35 229 0.0 0.0 0.00 0.00 0.00 84 722.6
20240302131718 35 229 0.0 0.0 0.00 0.00 0.00 84 722.6
20240302131208 35 229 0.0 0.0 0.00 0.00 0.00 84 722.6
20240302130720 35 229 0.0 0.0 0.00 0.00 0.00 84 722.6
20240302130602 35 229 0.0 0.0 0.00 0.00 0.00 84 722.6
20240302130046 35 229 0.0 0.0 0.00 0.00 0.00 84 722.6
20240302125626 35 229 0.0 0.0 0.00 0.00 0.00 84 722.6
20240302125138 35 229 0.0 0.0 0.00 0.00 0.00 84 722.6
20240302124547 35 229 0.0 0.0 0.00 0.00 0.00 84 722.6
20240302124101 35 229 0.0 0.0 0.00 0.00 0.00 84 722.6
20240302123818 36 229 0.0 0.0 0.00 0.00 0.00 84 722.6
20240302123052 36 229 0.0 0.0 0.00 0.00 0.00 83 722.6
20240302122936 36 229 0.0 0.0 0.00 0.00 0.00 83 722.6
20240302122214 36 229 0.0 0.0 0.00 0.00 0.00 83 722.6
20240302122106 36 229 0.0 0.0 0.00 0.00 0.00 83 722.6
20240302121549 36 229 0.0 0.0 0.00 0.00 0.00 83 722.6
20240302121142 36 229 0.0 0.0 0.00 0.00 0.00 83 722.6
20240302120618 36 259 0.0 0.0 0.00 0.00 0.00 82 722.6
20240302120115 36 259 0.0 0.0 0.00 0.00 0.00 82 722.6
20240302115555 37 259 0.0 0.0 0.00 0.00 0.00 83 722.6
20240302115322 37 259 0.0 0.0 0.00 0.00 0.00 83 722.6
20240302114715 37 259 0.0 0.0 0.00 0.00 0.00 83 722.7
20240302114613 37 259 0.0 0.0 0.00 0.00 0.00 83 722.7
20240302114109 37 259 0.0 0.0 0.00 0.00 0.00 83 722.7
20240302113559 37 259 0.0 0.0 0.00 0.00 0.00 83 722.7
20240302113103 37 267 0.0 0.0 0.00 0.00 0.00 83 722.7
20240302112556 37 267 0.0 0.0 0.00 0.00 0.00 83 722.7
20240302112055 37 267 0.0 0.0 0.00 0.00 0.00 82 722.7
20240302111618 37 267 0.0 0.0 0.00 0.00 0.00 82 722.7
20240302111156 37 267 0.0 0.0 0.00 0.00 0.00 81 722.7
20240302110719 37 302 0.0 0.0 0.00 0.00 0.00 81 722.7
20240302110358 37 302 0.0 0.0 0.00 0.00 0.00 81 1077.7
20240302105558 37 303 0.0 0.0 0.00 0.00 0.00 81 1077.7
20240302105219 37 303 0.0 0.0 0.00 0.00 0.00 80 1077.7
20240302104934 38 303 0.0 0.0 0.00 0.00 0.00 80 1077.7
20240302104605 38 303 0.0 0.0 0.00 0.00 0.00 80 1077.7
20240302104103 38 303 0.0 0.0 0.00 0.00 0.00 80 1077.7
20240302103917 38 303 0.0 0.0 0.00 0.00 0.00 80 1077.7
20240302103440 38 303 0.0 0.0 0.00 0.00 0.00 80 1077.7
20240302102639 38 303 0.0 0.0 0.00 0.00 0.00 80 1077.7
20240302102149 38 303 0.0 0.0 0.00 0.00 0.00 79 1077.7
20240302101619 38 303 0.0 0.0 0.00 0.00 0.00 79 1077.8
20240302101329 38 304 0.0 0.0 0.00 0.00 0.00 80 1077.8
20240302101319 38 303 0.0 0.0 0.00 0.00 0.00 80 1077.8
20240302100602 38 304 0.0 0.0 0.00 0.00 0.00 80 1077.8
20240302100048 39 279 0.0 0.0 0.00 0.00 0.00 79 1077.8
20240302095705 39 283 0.0 0.0 0.00 0.00 0.00 79 1077.8
20240302095411 39 283 0.0 0.0 0.00 0.00 0.00 80 1077.8
20240302094732 39 283 0.0 0.0 0.00 0.00 0.00 79 1077.8
20240302094633 39 221 0.0 0.0 0.00 0.00 0.00 79 1077.8
20240302094328 39 221 0.0 0.0 0.00 0.00 0.00 79 1077.8
20240302093714 39 221 0.0 0.0 0.00 0.00 0.00 79 1077.8
20240302093635 39 217 0.0 0.0 0.00 0.00 0.00 78 1077.8
20240302093128 39 217 0.0 0.0 0.00 0.00 0.00 78 1077.8
20240302092609 39 215 0.0 0.0 0.00 0.00 0.00 77 1077.8
20240302092157 40 215 0.0 0.0 0.00 0.00 0.00 76 1077.9
20240302092106 40 215 0.0 0.0 0.00 0.00 0.00 76 1077.9
20240302091827 40 215 0.0 0.0 0.00 0.00 0.00 76 1077.9
20240302091152 40 215 0.0 0.0 0.00 0.00 0.00 76 1077.9
20240302090937 40 215 0.0 0.0 0.00 0.00 0.00 77 1077.9
20240302090558 40 215 0.0 0.0 0.00 0.00 0.00 77 1077.9
20240302090049 40 215 0.0 0.0 0.00 0.00 0.00 76 1077.9
20240302085730 41 215 0.0 0.0 0.00 0.00 0.00 77 1077.9
20240302085209 41 215 0.0 0.0 0.00 0.00 0.00 77 1077.9
20240302084720 41 304 0.0 0.0 0.00 0.00 0.00 77 1077.9
20240302084631 41 304 0.0 0.0 0.00 0.00 0.00 77 1077.9
20240302084106 41 225 0.0 0.0 0.00 0.00 0.00 77 1077.9
20240302083900 41 225 0.0 0.0 0.00 0.00 0.00 77 1077.9
20240302083215 41 258 0.0 0.0 0.00 0.00 0.00 77 1077.9
20240302082936 41 258 0.0 0.0 0.00 0.00 0.00 76 1077.9
20240302082214 41 251 0.0 0.0 0.00 0.00 0.00 76 1077.9
20240302081637 41 238 0.0 0.0 0.00 0.00 0.00 75 1077.9
20240302081556 41 238 0.0 0.0 0.00 0.00 0.00 75 1077.9
20240302081045 41 238 0.0 0.0 0.00 0.00 0.00 75 1077.9
20240302080659 41 238 0.0 0.0 0.00 0.00 0.00 75 1077.9
20240302080605 41 238 0.0 0.0 0.00 0.00 0.00 75 1077.9
20240302080104 41 238 0.0 0.0 0.00 0.00 0.00 75 1077.9
20240302075717 41 238 0.0 0.0 0.00 0.00 0.00 75 1077.9
20240302075635 41 238 0.0 0.0 0.00 0.00 0.00 75 1077.9
20240302075130 41 238 0.0 0.0 0.00 0.00 0.00 75 1077.9
20240302074656 41 238 0.0 0.0 0.00 0.00 0.00 75 1077.9
20240302074604 41 238 0.0 0.0 0.00 0.00 0.00 74 1077.9
20240302074319 41 236 0.0 0.0 0.00 0.00 0.00 74 1077.9
20240302073556 41 262 0.0 0.0 0.00 0.00 0.00 74 1077.9
20240302073144 41 262 0.0 0.0 0.00 0.00 0.00 73 1078.0
20240302072843 42 229 0.0 0.0 0.00 0.00 0.00 73 1078.0
20240302072154 42 229 0.0 0.0 0.00 0.00 0.00 73 1078.0
20240302071624 42 229 0.0 0.0 0.00 0.00 0.00 72 1078.0
20240302071110 42 229 0.0 0.0 0.00 0.00 0.00 72 1078.0
20240302070718 42 229 0.0 0.0 0.00 0.00 0.00 71 1078.0
20240302070602 42 229 0.0 0.0 0.00 0.00 0.00 71 1078.0
20240302070048 42 229 0.0 0.0 0.00 0.00 0.00 71 1078.0
20240302065641 42 229 0.0 0.0 0.00 0.00 0.00 70 1078.0
20240302065413 43 229 0.0 0.0 0.00 0.00 0.00 70 1078.0
20240302064623 43 279 0.0 0.0 0.00 0.00 0.00 70 1078.1
20240302064048 43 279 0.0 0.0 0.00 0.00 0.00 70 1078.1
20240302063556 43 279 0.0 0.0 0.00 0.00 0.00 70 1078.1
20240302063418 43 279 0.0 0.0 0.00 0.00 0.00 70 1078.1
20240302062711 43 279 0.0 0.0 0.00 0.00 0.00 70 1078.1
20240302062635 43 279 0.0 0.0 0.00 0.00 0.00 70 1078.1
20240302062130 44 279 0.0 0.0 0.00 0.00 0.00 69 1078.1
20240302061655 44 270 0.0 0.0 0.00 0.00 0.00 69 1078.1
20240302060711 44 270 0.0 0.0 0.00 0.00 0.00 68 1078.1
20240302060602 44 270 0.0 0.0 0.00 0.00 0.00 68 1078.1
20240302060103 44 279 0.0 0.0 0.00 0.00 0.00 68 1078.1
20240302055643 44 249 0.0 0.0 0.00 0.00 0.00 68 1078.2
20240302055118 44 249 0.0 0.0 0.00 0.00 0.00 67 1078.2
20240302054630 45 227 0.0 0.0 0.00 0.00 0.00 67 1078.2
20240302054134 45 254 0.0 0.0 0.00 0.00 0.00 67 1078.2
20240302053717 45 285 0.0 0.0 0.00 0.00 0.00 67 1078.2
20240302053222 45 265 0.0 0.0 0.00 0.00 0.00 66 1078.2
20240302052655 45 293 0.0 0.0 0.00 0.00 0.00 65 1078.2
20240302052215 46 293 0.0 0.0 0.00 0.00 0.00 65 1078.2
20240302051716 46 263 0.0 0.0 0.00 0.00 0.00 65 1078.2
20240302051605 46 286 0.0 0.0 0.00 0.00 0.00 65 1078.2
20240302051057 46 311 0.0 0.0 0.00 0.00 0.00 65 1078.2
20240302050854 46 308 0.0 0.0 0.00 0.00 0.00 64 1078.3
20240302050058 46 325 0.0 0.0 0.00 0.00 0.00 64 1078.3
20240302045601 46 257 0.0 0.0 0.00 0.00 0.00 64 1078.3
20240302045433 46 315 0.0 0.0 0.00 0.00 0.00 64 1078.3
20240302044645 47 259 0.0 0.0 0.00 0.00 0.00 63 1078.3
20240302044601 47 248 0.0 0.0 0.00 0.00 0.00 63 1078.3
20240302044103 47 264 0.0 0.0 0.00 0.00 0.00 63 1078.3
20240302043723 47 288 0.0 0.0 0.00 0.00 0.00 63 1078.3
20240302043557 47 227 0.0 0.0 0.00 0.00 0.00 63 1078.3
20240302043050 47 295 0.0 0.0 0.00 0.00 0.00 62 1078.3
20240302042823 47 314 0.0 0.0 0.00 0.00 0.00 62 1078.3
20240302042440 47 256 0.0 0.0 0.00 0.00 0.00 62 1078.3
20240302042107 47 259 0.0 0.0 0.00 0.00 0.00 62 1078.3
20240302041608 47 278 0.0 0.0 0.00 0.00 0.00 62 1078.3
20240302041356 48 254 0.0 0.0 0.00 0.00 0.00 61 1078.4
20240302040231 48 212 0.0 0.0 0.00 0.00 0.00 61 1078.4
20240302035652 48 273 0.0 0.0 0.00 0.00 0.00 60 1078.4
20240302035144 48 255 0.0 1.0 0.00 0.00 0.00 60 1078.4
20240302034609 48 259 0.0 1.0 0.00 0.00 0.00 60 1078.4
20240302034201 48 259 0.0 0.0 0.00 0.00 0.00 60 1078.4
20240302034100 49 273 0.0 0.0 0.00 0.00 0.00 60 1078.4
20240302033558 49 245 0.0 0.0 0.00 0.00 0.00 60 1078.4
20240302033210 49 273 0.0 0.0 0.00 0.00 0.00 60 1078.4
20240302032902 49 273 0.0 0.0 0.00 0.00 0.00 59 1078.4
20240302032132 49 277 0.0 0.0 0.00 0.00 0.00 60 1078.4
20240302031627 49 263 0.0 0.0 0.00 0.00 0.00 59 1078.4
20240302031147 49 270 0.0 0.0 0.00 0.00 0.00 59 1078.4
20240302030616 49 290 0.0 0.0 0.00 0.00 0.00 59 1078.5
20240302030133 49 285 0.0 0.0 0.00 0.00 0.00 59 1078.5
20240302025617 49 275 0.0 0.0 0.00 0.00 0.00 59 1078.5
20240302025309 49 273 0.0 0.0 0.00 0.00 0.00 59 1078.5
20240302024605 49 261 0.0 0.0 0.00 0.00 0.00 59 1078.5
20240302024148 49 335 0.0 0.0 0.00 0.00 0.00 59 1078.5
20240302023625 49 273 0.0 0.0 0.00 0.00 0.00 60 1078.5
20240302023436 49 279 0.0 0.0 0.00 0.00 0.00 60 1078.4
20240302023105 49 280 0.0 0.0 0.00 0.00 0.00 60 1078.4
20240302022605 49 272 0.0 0.0 0.00 0.00 0.00 60 1078.4
20240302022054 49 252 0.0 0.0 0.00 0.00 0.00 60 1078.4
20240302022040 49 254 0.0 0.0 0.00 0.00 0.00 59 1078.4
20240302021606 49 265 0.0 0.0 0.00 0.00 0.00 59 1078.5
20240302021053 50 265 0.0 0.0 0.00 0.00 0.00 59 1078.5
20240302020550 50 276 0.0 0.0 0.00 0.00 0.00 58 1078.5
20240302020119 50 267 0.0 0.0 0.00 0.00 0.00 57 1078.5
20240302015703 50 248 0.0 0.0 0.00 0.00 0.00 57 1078.5
20240302015605 50 248 0.0 0.0 0.00 0.00 0.00 57 1078.5
20240302015102 51 245 0.0 0.0 0.00 0.00 0.00 57 1078.5
20240302014725 51 245 0.0 0.0 0.00 0.00 0.00 57 1078.5
20240302014622 51 245 0.0 0.0 0.00 0.00 0.00 57 1078.5
20240302014124 51 245 0.0 0.0 0.00 0.00 0.00 56 1078.6
20240302013656 51 290 0.0 0.0 0.00 0.00 0.00 56 1078.3
20240302013137 51 269 0.0 0.0 0.00 0.00 0.00 56 1078.3
20240302012632 52 245 0.0 0.0 0.00 0.00 0.00 55 1078.3
20240302012118 52 259 0.0 0.0 0.00 0.00 0.00 55 1078.3
20240302011611 52 280 0.0 1.0 0.00 0.00 0.00 56 1090.9
20240302011222 52 259 0.0 1.0 0.00 0.00 0.00 56 1090.9
20240302010708 52 273 0.0 0.0 0.00 0.00 0.00 56 1090.9
20240302010131 52 264 0.0 0.0 0.00 0.00 0.00 55 1091.0
20240302005627 53 227 0.0 0.0 0.00 0.00 0.00 54 1091.0
20240302005127 53 205 0.0 0.0 0.00 0.00 0.00 53 1091.0
20240302004657 53 238 0.0 0.0 0.00 0.00 0.00 53 1091.0
20240302004605 53 238 0.0 0.0 0.00 0.00 0.00 53 1091.0
20240302004103 53 252 0.0 0.0 0.00 0.00 0.00 53 1085.9
20240302003710 54 252 0.0 0.0 0.00 0.00 0.00 52 1085.9
20240302003633 54 252 0.0 0.0 0.00 0.00 0.00 52 1085.9
20240302003129 54 260 0.0 0.0 0.00 0.00 0.00 52 1084.1
20240302002640 54 243 0.0 0.0 0.00 0.00 0.00 51 1084.1
20240302002051 55 240 0.0 0.0 0.00 0.00 0.00 51 1084.1
20240302001756 55 287 0.0 0.0 0.00 0.00 0.00 51 1084.1
20240302001749 55 272 0.0 0.0 0.00 0.00 0.00 51 1084.1
20240302000825 55 238 0.0 1.0 0.00 0.00 0.00 50 1084.2
20240302000110 56 273 0.0 1.0 0.00 0.00 0.00 50 1084.2
20240301235631 56 242 0.0 1.0 0.00 0.00 0.00 49 1084.2
20240301235330 56 300 0.0 0.0 0.00 0.00 0.00 49 1084.2
20240301234639 56 276 0.0 0.0 0.00 0.00 0.00 49 1084.2
20240301234547 56 288 0.0 0.0 0.00 0.00 0.00 49 1084.2
20240301233859 57 279 0.0 1.0 0.00 0.00 0.00 48 1084.2
20240301233335 57 265 0.0 1.0 0.00 0.00 0.00 48 1084.3
20240301232706 57 269 0.0 4.0 0.00 0.00 0.00 48 1084.3
20240301232547 57 300 0.0 4.0 0.00 0.00 0.00 48 1084.3
20240301232049 57 259 0.0 4.0 0.00 0.00 0.00 48 1095.5
20240301231626 58 244 0.0 3.0 0.00 0.00 0.00 48 1095.5
20240301231430 58 291 0.0 1.0 0.00 0.00 0.00 47 1095.5
20240301230707 58 249 0.0 7.0 0.00 0.00 0.00 47 1095.5
20240301230200 58 270 0.0 7.0 0.00 0.00 0.00 47 1095.5
20240301225720 58 287 0.0 0.0 0.00 0.00 0.00 47 1095.5
20240301225153 58 256 0.0 0.0 0.00 0.00 0.00 47 1095.5
20240301224640 58 278 0.0 7.0 0.00 0.00 0.00 47 1095.5
20240301224202 58 293 1.0 10.0 0.00 0.00 0.00 47 673.0
20240301223620 58 343 0.0 5.0 0.00 0.00 0.00 47 673.0
20240301223112 58 263 0.0 1.0 0.00 0.00 0.00 47 673.0
20240301222601 59 232 0.0 5.0 0.00 0.00 0.00 47 673.0
20240301222216 59 237 0.0 5.0 0.00 0.00 0.00 46 673.1
20240301221713 59 289 0.0 1.0 0.00 0.00 0.00 46 673.1
20240301221140 59 284 0.0 0.0 0.00 0.00 0.00 46 673.1
20240301220930 59 238 0.0 9.0 0.00 0.00 0.00 46 673.1
20240301220153 59 306 1.0 11.0 0.00 0.00 0.00 46 673.1
20240301220053 60 279 0.0 11.0 0.00 0.00 0.00 46 673.1
20240301215555 60 259 0.0 1.0 0.00 0.00 0.00 46 673.1
20240301215220 60 244 0.0 1.0 0.00 0.00 0.00 46 673.1
20240301215116 60 193 0.0 1.0 0.00 0.00 0.00 46 673.1
20240301214620 60 283 0.0 1.0 0.00 0.00 0.00 46 673.1
20240301214319 59 238 0.0 1.0 0.00 0.00 0.00 46 673.1
20240301213720 59 274 0.0 1.0 0.00 0.00 0.00 46 673.1
20240301213159 59 290 0.0 11.0 0.00 0.00 0.00 46 673.1
20240301212657 59 265 0.0 11.0 0.00 0.00 0.00 46 673.1
20240301212351 59 282 0.0 2.0 0.00 0.00 0.00 46 673.1
20240301211106 59 215 0.0 13.0 0.00 0.00 0.00 46 673.1
20240301210629 59 271 0.0 2.0 0.00 0.00 0.00 46 673.1
20240301210052 59 228 0.0 2.0 0.00 0.00 0.00 46 673.1
20240301205555 59 267 0.0 1.0 0.00 0.00 0.00 46 673.1
20240301205118 59 246 0.0 1.0 0.00 0.00 0.00 46 673.1
20240301204600 59 287 0.0 9.0 0.00 0.00 0.00 46 673.1
20240301204221 59 287 0.0 9.0 0.00 0.00 0.00 46 673.1
20240301203718 59 112 0.0 6.0 0.00 0.00 0.00 46 673.1
20240301203345 59 283 0.0 3.0 0.00 0.00 0.00 46 673.1
20240301203335 59 269 0.0 3.0 0.00 0.00 0.00 46 673.1
20240301202844 59 207 0.0 1.0 0.00 0.00 0.00 46 673.1
20240301202051 59 250 0.0 1.0 0.00 0.00 0.00 46 673.1
20240301201558 59 281 1.0 13.0 0.00 0.00 0.00 46 993.1
20240301201148 59 277 1.0 13.0 0.00 0.00 0.00 46 993.1
20240301200856 59 269 0.0 1.0 0.00 0.00 0.00 45 993.2
20240301200138 59 279 0.0 0.0 0.00 0.00 0.00 45 993.1
20240301195647 59 272 0.0 1.0 0.00 0.00 0.00 46 993.1
20240301195332 59 234 0.0 1.0 0.00 0.00 0.00 46 993.1
20240301195320 59 209 0.0 1.0 0.00 0.00 0.00 46 993.1
20240301194819 58 286 0.0 1.0 0.00 0.00 0.00 47 993.1
20240301194115 58 207 0.0 7.0 0.00 0.00 0.00 47 993.1
20240301193700 57 219 0.0 7.0 0.00 0.00 0.00 48 993.1
20240301193606 57 310 0.0 7.0 0.00 0.00 0.00 48 993.0
20240301192551 58 44 1.0 12.0 0.00 0.00 0.00 47 993.1
20240301192056 58 236 0.0 3.0 0.00 0.00 0.00 47 993.1
20240301191650 57 265 0.0 11.0 0.00 0.00 0.00 48 993.0
20240301191127 57 207 0.0 11.0 0.00 0.00 0.00 48 993.0
20240301190557 56 283 0.0 3.0 0.00 0.00 0.00 48 993.0
20240301190331 56 228 0.0 3.0 0.00 0.00 0.00 49 993.0
20240301185559 56 273 0.0 6.0 0.00 0.00 0.00 48 993.0
20240301185132 55 211 0.0 7.0 0.00 0.00 0.00 49 992.9
20240301184559 55 300 0.0 7.0 0.00 0.00 0.00 49 992.9
20240301184221 54 260 0.0 1.0 0.00 0.00 0.00 50 992.9
20240301183851 54 280 0.0 1.0 0.00 0.00 0.00 49 992.9
20240301183842 54 288 0.0 1.0 0.00 0.00 0.00 49 992.9
20240301183127 54 293 0.0 2.0 0.00 0.00 0.00 49 992.9
20240301182620 54 302 0.0 1.0 0.00 0.00 0.00 49 992.9
20240301182220 54 275 0.0 2.0 0.00 0.00 0.00 49 992.9
20240301181637 54 306 0.0 12.0 0.00 0.00 0.00 50 992.9
20240301181140 54 275 0.0 2.0 0.00 0.00 0.00 50 992.8
20240301180830 54 275 0.0 2.0 0.00 0.00 0.00 50 992.9
20240301180059 54 281 0.0 2.0 0.00 0.00 0.00 50 992.9
20240301175705 54 233 0.0 2.0 0.00 0.00 0.00 50 992.8
20240301175610 53 273 0.0 2.0 0.00 0.00 0.00 50 992.8
20240301175112 53 244 0.0 1.0 0.00 0.00 0.00 50 992.8
20240301174657 53 288 0.0 0.0 0.00 0.00 0.00 50 992.8
20240301174419 53 292 0.0 1.0 0.00 0.00 0.00 51 992.8
20240301173716 51 275 0.0 1.0 0.00 0.00 0.00 52 992.7
20240301173154 51 270 0.0 1.0 0.00 0.00 0.00 52 992.7
20240301172935 51 290 0.0 1.0 0.00 0.00 0.00 51 992.7
20240301172606 51 283 1.0 1.0 0.00 0.00 0.00 51 992.7
20240301172101 51 292 1.0 7.0 0.00 0.00 0.00 52 992.7
20240301171627 51 262 1.0 5.0 0.00 0.00 0.00 52 992.7
20240301171219 50 229 0.0 1.0 0.00 0.00 0.00 52 992.7
20240301171100 50 260 0.0 7.0 0.00 0.00 0.00 53 992.7
20240301170546 50 278 0.0 7.0 0.00 0.00 0.00 53 992.7
20240301170528 50 205 0.0 3.0 0.00 0.00 0.00 53 992.7
20240301170523 50 296 0.0 3.0 0.00 0.00 0.00 53 992.7
20240301165808 49 260 0.0 0.0 0.00 0.00 0.00 53 992.6
20240301165210 49 277 0.0 1.0 0.00 0.00 0.00 54 992.6
20240301165123 49 269 0.0 1.0 0.00 0.00 0.00 54 992.6